GW1004 Weather Reports


time (UTC)temp
C
wind
direction
speed
KPH
gust
KPH
rain 1hr
cm
rain 24hr
cm
rain mn
cm
humidity
%
barometer
mb
20260510142409 20 311 1.6 1.6 0.00 0.00 0.00 78 1014.9
20260510141906 19 345 1.6 1.6 0.00 0.00 0.00 78 1015.0
20260510141403 19 337 0.0 1.6 0.00 0.00 0.00 81 1014.9
20260510140859 19 319 0.0 1.6 0.00 0.00 0.00 81 1014.7
20260510140355 19 300 0.0 1.6 0.00 0.00 0.00 79 1014.9
20260510135849 18 321 0.0 1.6 0.00 0.00 0.00 81 1014.8
20260510135345 18 11 1.6 1.6 0.00 0.00 0.00 82 1014.8
20260510134843 18 260 1.6 3.2 0.00 0.00 0.00 84 1014.8
20260510134339 16 322 0.0 0.0 0.00 0.00 0.00 92 1014.7
20260510133835 16 333 0.0 0.0 0.00 0.00 0.00 95 1014.8
20260510133332 15 329 0.0 0.0 0.00 0.00 0.00 98 1014.8
20260510132828 15 345 0.0 1.6 0.00 0.00 0.00 99 1014.9
20260510132326 15 325 0.0 0.0 0.00 0.00 0.00 99 1014.6
20260510131822 15 325 0.0 1.6 0.00 0.00 0.00 99 1014.6
20260510131320 15 323 0.0 0.0 0.00 0.00 0.00 99 1014.6
20260510130816 15 333 0.0 1.6 0.00 0.00 0.00 99 1014.9
20260510130314 14 329 0.0 0.0 0.00 0.00 0.00 99 1014.7
20260510125810 13 337 0.0 0.0 0.00 0.00 0.00 99 1014.8
20260510125307 13 323 0.0 0.0 0.00 0.00 0.00 99 1014.9
20260510124803 13 342 0.0 0.0 0.00 0.00 0.00 99 1014.9
20260510124300 13 322 0.0 0.0 0.00 0.00 0.00 99 1014.7
20260510123755 13 303 1.6 1.6 0.00 0.00 0.00 99 1014.7
20260510123251 12 10 1.6 1.6 0.00 0.00 0.00 99 1014.6
20260510122748 12 302 0.0 0.0 0.00 0.00 0.00 99 1014.6
20260510122244 12 304 0.0 0.0 0.00 0.00 0.00 99 1014.5
20260510121740 11 307 0.0 0.0 0.00 0.00 0.00 99 1014.3
20260510121238 11 306 0.0 0.0 0.00 0.00 0.00 99 1014.3
20260510120730 11 294 0.0 0.0 0.00 0.00 0.00 99 1014.2
20260510120226 11 289 1.6 1.6 0.00 0.00 0.00 99 1014.1
20260510115721 11 286 1.6 1.6 0.00 0.00 0.00 99 1014.0
20260510115220 11 291 0.0 0.0 0.00 0.00 0.00 99 1014.3
20260510114715 11 289 0.0 1.6 0.00 0.00 0.00 99 1014.0
20260510114212 11 301 1.6 1.6 0.00 0.00 0.00 99 1013.9
20260510113707 11 278 0.0 1.6 0.00 0.00 0.00 99 1013.8
20260510113204 11 296 0.0 0.0 0.00 0.00 0.00 99 1014.1
20260510112700 11 329 0.0 1.6 0.00 0.00 0.00 99 1014.2
20260510112158 10 320 0.0 0.0 0.00 0.00 0.00 99 1014.0
20260510111653 10 308 0.0 0.0 0.00 0.00 0.00 99 1013.7
20260510111150 10 284 1.6 1.6 0.00 0.00 0.00 99 1013.6
20260510110639 10 302 0.0 0.0 0.00 0.00 0.00 99 1013.7
20260510110137 10 297 0.0 0.0 0.00 0.00 0.00 99 1014.0
20260510105633 10 322 0.0 0.0 0.00 0.00 0.00 99 1014.0
20260510105132 10 335 0.0 0.0 0.00 0.00 0.00 99 1014.0
20260510104630 10 324 0.0 0.0 0.00 0.00 0.00 99 1013.7
20260510104126 10 323 0.0 0.0 0.00 0.00 0.00 99 1013.6
20260510103623 10 312 0.0 0.0 0.00 0.00 0.00 99 1013.5
20260510103119 10 310 0.0 0.0 0.00 0.00 0.00 99 1013.3
20260510102614 10 323 0.0 0.0 0.00 0.00 0.00 99 1013.2
20260510102110 10 318 0.0 0.0 0.00 0.00 0.00 99 1013.1
20260510101609 10 311 0.0 0.0 0.00 0.00 0.00 99 1013.3
20260510101107 10 310 0.0 0.0 0.00 0.00 0.00 99 1013.3
20260510100602 10 321 0.0 0.0 0.00 0.00 0.00 99 1013.4
20260510100100 10 328 0.0 0.0 0.00 0.00 0.00 99 1013.2
20260510095556 10 307 0.0 0.0 0.00 0.00 0.00 99 1013.2
20260510095055 10 308 0.0 0.0 0.00 0.00 0.00 99 1013.2
20260510094550 10 317 0.0 0.0 0.00 0.00 0.00 99 1013.2
20260510094045 10 316 0.0 0.0 0.00 0.00 0.00 99 1013.1
20260510093541 10 326 0.0 0.0 0.00 0.00 0.00 99 1012.8
20260510093038 10 307 0.0 0.0 0.00 0.00 0.00 99 1013.1
20260510092535 10 298 0.0 0.0 0.00 0.00 0.00 99 1013.1
20260510092030 10 322 0.0 0.0 0.00 0.00 0.00 99 1013.0
20260510091527 10 327 0.0 0.0 0.00 0.00 0.00 99 1013.0
20260510091023 10 307 0.0 0.0 0.00 0.00 0.00 99 1013.0
20260510090520 10 322 0.0 0.0 0.00 0.00 0.00 99 1013.1
20260510090016 10 308 0.0 0.0 0.00 0.00 0.00 99 1013.2
20260510085516 10 347 1.6 1.6 0.00 0.00 0.00 99 1013.2
20260510085012 10 325 0.0 0.0 0.00 0.00 0.00 99 1013.1
20260510084509 9 313 0.0 0.0 0.00 0.00 0.00 99 1013.2
20260510084005 9 316 0.0 0.0 0.00 0.00 0.00 99 1013.2
20260510083502 9 329 0.0 1.6 0.00 0.00 0.00 99 1013.2
20260510082957 10 340 3.2 3.2 0.00 0.00 0.00 99 1013.2
20260510082455 10 334 3.2 3.2 0.00 0.00 0.00 99 1012.9
20260510081955 10 334 3.2 3.2 0.00 0.00 0.00 99 1013.0
20260510081451 10 344 1.6 3.2 0.00 0.00 0.00 99 1012.9
20260510080947 10 322 0.0 0.0 0.00 0.00 0.00 99 1012.5
20260510080445 10 319 0.0 0.0 0.00 0.00 0.00 99 1012.6
20260510075943 10 323 0.0 0.0 0.00 0.00 0.00 99 1012.3
20260510075440 10 321 0.0 0.0 0.00 0.00 0.00 99 1012.4
20260510074937 10 318 0.0 0.0 0.00 0.00 0.00 99 1012.5
20260510074434 10 324 0.0 0.0 0.00 0.00 0.00 99 1012.4
20260510073930 10 323 0.0 0.0 0.00 0.00 0.00 99 1012.3
20260510073426 10 322 0.0 0.0 0.00 0.00 0.00 99 1012.4
20260510072923 10 328 0.0 0.0 0.00 0.00 0.00 99 1012.6
20260510072420 10 339 1.6 1.6 0.00 0.00 0.00 99 1012.4
20260510071915 10 336 1.6 3.2 0.00 0.00 0.00 99 1012.5
20260510071412 10 357 1.6 3.2 0.00 0.00 0.00 99 1012.5
20260510070910 10 354 3.2 3.2 0.00 0.00 0.00 99 1012.7
20260510070407 9 340 3.2 3.2 0.00 0.00 0.00 99 1012.4
20260510065902 10 346 3.2 3.2 0.00 0.00 0.00 99 1012.1
20260510065359 10 342 1.6 1.6 0.00 0.00 0.00 99 1012.0
20260510064855 10 344 4.8 4.8 0.00 0.00 0.00 99 1012.0
20260510064354 10 293 0.0 0.0 0.00 0.00 0.00 99 1011.9
20260510063849 10 278 0.0 0.0 0.00 0.00 0.00 99 1012.0
20260510063346 10 272 0.0 0.0 0.00 0.00 0.00 99 1011.7
20260510062843 10 274 0.0 0.0 0.00 0.00 0.00 99 1011.8
20260510062338 10 285 0.0 0.0 0.00 0.00 0.00 99 1011.8
20260510061834 10 284 0.0 0.0 0.00 0.00 0.00 99 1011.9
20260510061331 10 293 0.0 0.0 0.00 0.00 0.00 99 1011.9
20260510060827 10 293 0.0 0.0 0.00 0.00 0.00 99 1012.2
20260510060324 11 292 0.0 0.0 0.00 0.00 0.00 99 1012.0
20260510055821 11 287 0.0 0.0 0.00 0.00 0.00 99 1011.8
20260510055320 11 274 0.0 0.0 0.00 0.00 0.00 99 1012.0
20260510054819 11 256 0.0 0.0 0.00 0.00 0.00 99 1012.1
20260510054315 11 253 0.0 0.0 0.00 0.00 0.00 99 1012.0
20260510053810 11 253 0.0 0.0 0.00 0.00 0.00 99 1012.3
20260510053305 11 253 0.0 0.0 0.00 0.00 0.00 99 1012.3
20260510052802 11 251 0.0 0.0 0.00 0.00 0.00 99 1012.4
20260510052257 11 260 0.0 0.0 0.00 0.00 0.00 99 1012.3
20260510051754 11 265 0.0 0.0 0.00 0.00 0.00 99 1012.4
20260510051245 11 266 0.0 0.0 0.00 0.00 0.00 99 1012.3
20260510050742 11 278 0.0 0.0 0.00 0.00 0.00 99 1012.4
20260510050239 11 289 0.0 0.0 0.00 0.00 0.00 99 1012.5
20260510045736 11 296 0.0 0.0 0.00 0.00 0.00 99 1012.5
20260510045232 11 293 0.0 0.0 0.00 0.00 0.00 99 1012.6
20260510044729 11 303 0.0 0.0 0.00 0.00 0.00 99 1012.4
20260510044227 11 299 0.0 0.0 0.00 0.00 0.00 99 1012.5
20260510043722 11 307 0.0 0.0 0.00 0.00 0.00 99 1012.8
20260510043219 11 304 0.0 0.0 0.00 0.00 0.00 99 1012.6
20260510042716 11 305 0.0 0.0 0.00 0.00 0.00 99 1012.7
20260510042212 11 310 0.0 0.0 0.00 0.00 0.00 99 1012.6
20260510041709 11 311 0.0 0.0 0.00 0.00 0.00 99 1012.5
20260510041207 11 311 0.0 0.0 0.00 0.00 0.00 99 1012.7
20260510040703 11 311 0.0 0.0 0.00 0.00 0.00 99 1012.7
20260510040200 11 311 0.0 0.0 0.00 0.00 0.00 99 1012.9
20260510035656 11 311 0.0 0.0 0.00 0.33 0.33 99 1012.8
20260510035151 11 311 0.0 0.0 0.00 0.33 0.33 98 1012.7
20260510034648 11 311 0.0 0.0 0.00 0.33 0.33 98 1012.7
20260510034145 11 311 0.0 0.0 0.00 0.33 0.33 98 1012.7
20260510033641 11 310 0.0 1.6 0.00 0.33 0.33 98 1012.6
20260510033139 11 265 0.0 0.0 0.00 0.33 0.33 98 1012.5
20260510032635 11 256 0.0 0.0 0.00 0.33 0.33 98 1012.5
20260510032131 11 255 0.0 0.0 0.00 0.33 0.33 98 1012.5
20260510031626 11 255 0.0 0.0 0.00 0.33 0.33 98 1012.3
20260510031123 11 255 0.0 0.0 0.00 0.33 0.33 98 1012.2
20260510030617 11 255 0.0 0.0 0.00 0.33 0.33 98 1012.4
20260510030115 11 255 0.0 1.6 0.00 0.33 0.33 98 1012.3
20260510025612 11 255 0.0 1.6 0.00 0.33 0.33 99 1012.0
20260510025110 11 255 1.6 1.6 0.00 0.33 0.33 99 1012.1
20260510024606 11 254 1.6 1.6 0.00 0.33 0.33 99 1012.2
20260510024103 11 254 1.6 1.6 0.00 0.33 0.33 99 1012.2
20260510023559 11 264 1.6 1.6 0.00 0.33 0.33 99 1012.3
20260510023057 11 279 0.0 0.0 0.00 0.33 0.33 99 1012.2
20260510022555 11 240 1.6 1.6 0.00 0.33 0.33 99 1012.2
20260510022050 11 244 1.6 1.6 0.00 0.33 0.33 99 1012.1
20260510021547 11 241 1.6 1.6 0.00 0.33 0.33 99 1012.1
20260510021044 11 243 1.6 1.6 0.00 0.33 0.33 99 1012.2
20260510020538 11 242 1.6 1.6 0.00 0.33 0.33 99 1012.1
20260510020034 11 241 1.6 1.6 0.00 0.33 0.33 99 1012.0
20260510015530 11 240 1.6 1.6 0.00 0.33 0.33 99 1012.1
20260510015026 11 244 1.6 1.6 0.00 0.33 0.33 99 1012.0
20260510014523 11 245 1.6 1.6 0.00 0.33 0.33 99 1012.1
20260510014020 11 255 1.6 1.6 0.00 0.33 0.33 99 1012.1
20260510013515 11 250 1.6 1.6 0.00 0.33 0.33 99 1012.1
20260510013011 11 233 1.6 1.6 0.00 0.33 0.33 99 1012.2
20260510012505 11 235 1.6 1.6 0.00 0.33 0.33 99 1011.9
20260510012001 11 241 1.6 3.2 0.00 0.33 0.33 99 1012.0
20260510011455 11 251 1.6 3.2 0.00 0.33 0.33 99 1012.0
20260510010951 11 268 1.6 1.6 0.00 0.33 0.33 99 1011.9
20260510010449 11 276 0.0 1.6 0.00 0.33 0.33 99 1012.0
20260510005946 11 275 1.6 1.6 0.00 0.33 0.33 99 1011.8
20260510005442 11 290 0.0 0.0 0.00 0.33 0.33 99 1011.9
20260510004939 11 296 0.0 0.0 0.00 0.33 0.33 99 1011.8
20260510004436 12 295 1.6 1.6 0.00 0.33 0.33 99 1011.6
20260510003934 11 329 0.0 0.0 0.00 0.33 0.33 99 1011.6
20260510003431 11 323 0.0 0.0 0.00 0.33 0.33 99 1011.6
20260510002930 11 320 0.0 0.0 0.00 0.33 0.33 99 1011.6
20260510002427 11 320 0.0 0.0 0.00 0.33 0.33 99 1011.6
20260510001924 11 321 0.0 0.0 0.00 0.33 0.33 99 1011.7
20260510001421 11 322 0.0 0.0 0.00 0.33 0.33 99 1011.8
20260510000919 11 322 0.0 0.0 0.00 0.33 0.33 99 1011.5
20260510000415 12 322 0.0 0.0 0.00 0.33 0.33 99 1011.4
20260509235911 12 324 0.0 0.0 0.00 0.33 0.33 99 1011.6
20260509235409 12 325 0.0 0.0 0.00 0.33 0.33 99 1011.6
20260509234904 12 324 0.0 0.0 0.00 0.33 0.33 99 1011.6
20260509234402 12 323 0.0 0.0 0.00 0.33 0.33 99 1011.6
20260509233900 12 325 0.0 0.0 0.00 0.33 0.33 99 1011.8
20260509233357 12 325 0.0 0.0 0.00 0.33 0.33 99 1011.5
20260509232852 12 325 0.0 0.0 0.00 0.33 0.33 99 1011.7
20260509232351 12 326 0.0 0.0 0.00 0.33 0.33 99 1011.6
20260509231846 12 326 1.6 1.6 0.00 0.33 0.33 98 1011.6
20260509231343 12 315 0.0 0.0 0.00 0.33 0.33 98 1011.4
20260509230841 12 310 0.0 0.0 0.00 0.33 0.33 98 1011.5
20260509230332 12 310 0.0 0.0 0.00 0.33 0.33 98 1011.4
20260509225827 12 310 0.0 0.0 0.00 0.33 0.33 99 1011.4
20260509225325 12 308 0.0 0.0 0.00 0.33 0.33 98 1011.3
20260509224821 12 306 0.0 0.0 0.00 0.33 0.33 98 1011.4
20260509224317 12 306 0.0 0.0 0.00 0.33 0.33 98 1011.5
20260509223814 12 308 0.0 0.0 0.00 0.33 0.33 99 1011.6
20260509223310 12 289 0.0 0.0 0.00 0.33 0.33 98 1011.5
20260509222807 12 267 1.6 1.6 0.00 0.33 0.33 98 1011.6
20260509222306 12 263 1.6 1.6 0.00 0.33 0.33 98 1011.5
20260509221758 12 266 1.6 1.6 0.00 0.33 0.33 98 1011.6
20260509221256 12 285 0.0 1.6 0.00 0.33 0.33 98 1011.4
20260509220751 12 285 0.0 1.6 0.00 0.33 0.33 98 1011.6
20260509220248 12 269 1.6 1.6 0.00 0.33 0.33 98 1011.7
20260509215743 12 276 0.0 0.0 0.00 0.33 0.33 98 1011.7
20260509215240 12 284 0.0 0.0 0.00 0.33 0.33 98 1011.6
20260509214737 12 295 0.0 0.0 0.00 0.33 0.33 98 1011.5
20260509214234 12 299 0.0 0.0 0.00 0.33 0.33 98 1011.7
20260509213731 12 280 0.0 1.6 0.00 0.33 0.33 97 1011.5
20260509213226 12 301 0.0 0.0 0.00 0.33 0.33 97 1011.7
20260509212724 12 327 0.0 0.0 0.00 0.33 0.33 97 1012.0
20260509212221 12 292 0.0 0.0 0.00 0.33 0.33 97 1011.8
20260509211717 12 328 0.0 0.0 0.00 0.33 0.33 97 1011.9
20260509211214 12 290 0.0 1.6 0.00 0.33 0.33 97 1011.9
20260509210710 12 311 0.0 0.0 0.00 0.33 0.33 97 1011.9
20260509210208 13 317 0.0 1.6 0.00 0.33 0.33 97 1011.8
20260509205707 12 307 0.0 0.0 0.00 0.33 0.33 97 1011.7
20260509205207 12 307 0.0 0.0 0.13 0.33 0.33 97 1011.8
20260509204703 12 291 0.0 0.0 0.71 0.33 0.33 97 1011.8
20260509204200 12 291 0.0 1.6 0.89 0.33 0.33 97 1011.5
20260509203656 12 328 0.0 1.6 0.18 0.20 0.20 96 1011.9
20260509203154 12 319 0.0 0.0 0.00 0.18 0.18 96 1011.6
20260509202650 12 305 1.6 1.6 0.00 0.18 0.18 96 1011.4
20260509202144 12 285 0.0 0.0 0.00 0.18 0.18 96 1011.4
20260509201640 12 328 0.0 0.0 0.00 0.18 0.18 97 1011.5
20260509201137 13 323 0.0 1.6 0.00 0.18 0.18 97 1011.8
20260509200633 12 319 0.0 0.0 0.00 0.18 0.18 97 1011.8
20260509200128 12 219 3.2 3.2 0.00 0.18 0.18 96 1011.6
20260509195624 12 326 0.0 0.0 0.00 0.18 0.18 97 1011.6
20260509195120 12 313 0.0 0.0 0.00 0.18 0.18 97 1011.7
20260509194618 12 306 0.0 0.0 0.13 0.18 0.18 96 1011.8
20260509194116 12 321 0.0 0.0 0.13 0.18 0.18 96 1011.9
20260509193612 12 325 0.0 0.0 0.00 0.15 0.15 96 1012.0
20260509193108 12 304 1.6 1.6 0.00 0.15 0.15 96 1012.4
20260509192605 12 359 1.6 3.2 0.00 0.15 0.15 96 1012.2
20260509192100 12 332 1.6 1.6 0.18 0.15 0.15 96 1012.2
20260509191555 12 339 0.0 0.0 0.18 0.15 0.15 96 1012.4
20260509191051 12 339 0.0 0.0 0.00 0.13 0.13 96 1012.6
20260509190548 12 346 0.0 0.0 0.00 0.13 0.13 96 1012.8
20260509190046 13 331 0.0 0.0 0.00 0.13 0.13 96 1012.6
20260509185543 12 323 1.6 1.6 0.00 0.13 0.13 96 1012.8
20260509185039 13 337 1.6 1.6 0.00 0.13 0.13 96 1012.6
20260509184537 13 316 0.0 0.0 0.00 0.13 0.13 95 1012.5
20260509184033 13 331 0.0 1.6 0.13 0.13 0.13 95 1012.6
20260509183523 12 333 1.6 1.6 0.13 0.13 0.13 95 1012.8
20260509183019 12 13 0.0 1.6 0.18 0.10 0.10 94 1012.7
20260509182516 12 253 1.6 1.6 0.30 0.10 0.10 94 1012.8
20260509182013 12 328 0.0 1.6 0.13 0.08 0.08 93 1012.9
20260509181511 12 339 1.6 1.6 0.00 0.05 0.05 93 1013.1
20260509181010 13 333 1.6 1.6 0.00 0.05 0.05 92 1012.9
20260509180503 13 323 0.0 0.0 0.18 0.05 0.05 91 1013.0
20260509180002 13 317 0.0 0.0 0.18 0.05 0.05 90 1013.1
20260509175457 13 346 0.0 1.6 0.18 0.03 0.03 88 1012.9
20260509174954 13 332 1.6 1.6 0.18 0.03 0.03 86 1013.1
20260509174450 14 345 3.2 3.2 0.00 0.00 0.00 84 1012.8
20260509173944 14 331 0.0 1.6 0.00 0.00 0.00 82 1012.9
20260509173439 15 340 0.0 1.6 0.00 0.00 0.00 80 1012.8
20260509172936 15 334 0.0 1.6 0.00 0.00 0.00 81 1012.8
20260509172433 15 340 0.0 0.0 0.00 0.00 0.00 80 1012.8
20260509171929 15 339 0.0 0.0 0.00 0.00 0.00 80 1012.7
20260509171425 15 337 1.6 1.6 0.00 0.00 0.00 82 1012.6
20260509170921 14 330 0.0 0.0 0.00 0.00 0.00 83 1012.8
20260509170417 14 341 1.6 1.6 0.00 0.00 0.00 84 1012.9
20260509165913 14 325 1.6 3.2 0.00 0.00 0.00 85 1013.0
20260509165407 15 359 1.6 3.2 0.00 0.00 0.00 86 1013.0
20260509164903 15 321 0.0 1.6 0.00 0.00 0.00 88 1012.8
20260509164359 14 333 1.6 1.6 0.00 0.00 0.00 88 1012.8
20260509163855 14 326 0.0 0.0 0.00 0.00 0.00 89 1012.9
20260509163352 14 324 0.0 0.0 0.00 0.00 0.00 89 1012.8
20260509162851 14 310 1.6 1.6 0.00 0.00 0.00 89 1012.9
20260509162350 14 334 0.0 1.6 0.00 0.00 0.00 88 1013.0
20260509161846 14 336 1.6 3.2 0.00 0.00 0.00 87 1013.0
20260509161342 14 5 3.2 4.8 0.00 0.00 0.00 86 1013.1
20260509160838 15 328 1.6 1.6 0.00 0.00 0.00 85 1013.4
20260509160334 15 336 1.6 1.6 0.00 0.00 0.00 82 1013.4
20260509155829 15 341 0.0 1.6 0.00 0.00 0.00 81 1013.5
20260509155326 16 314 0.0 1.6 0.00 0.00 0.00 79 1013.5
20260509154823 16 289 0.0 0.0 0.00 0.00 0.00 78 1013.5
20260509154319 16 280 1.6 1.6 0.00 0.00 0.00 77 1013.7
20260509153816 16 314 1.6 1.6 0.00 0.00 0.00 76 1013.5
20260509153313 16 264 1.6 1.6 0.00 0.00 0.00 76 1013.4
20260509152810 16 295 3.2 3.2 0.00 0.00 0.00 75 1013.6
20260509152306 16 284 1.6 1.6 0.00 0.00 0.00 73 1013.7
20260509151803 16 272 3.2 3.2 0.00 0.00 0.00 73 1013.6
20260509151259 16 240 3.2 3.2 0.00 0.00 0.00 73 1013.7
20260509150758 16 267 0.0 0.0 0.00 0.00 0.00 73 1013.5
20260509150255 16 201 3.2 3.2 0.00 0.00 0.00 73 1013.6
20260509145752 16 186 4.8 4.8 0.00 0.00 0.00 74 1013.5
20260509145252 16 247 3.2 3.2 0.00 0.00 0.00 73 1013.6
20260509144749 16 251 1.6 1.6 0.00 0.00 0.00 72 1013.3
20260509144245 15 200 4.8 4.8 0.00 0.00 0.00 72 1013.3
20260509143743 15 250 1.6 3.2 0.00 0.00 0.00 73 1013.4
20260509143240 15 257 3.2 3.2 0.00 0.00 0.00 73 1013.1